Location: Sunkist
(34.0772°N, 117.1909°W)
Time: 15:00:44
(UTC+00:00)

Chandra Rocket (1) - Pass Details

Date: 13 April 2024
Orbit: 293 x 10894 km, 28.4° (Epoch: 20 May)

Event Time Altitude Azimuth Distance (km) Brightness Sun altitude
Exits shadow 12:25:34 17° 235° (SW) 1,322 3.2 -11.6°
Maximum altitude 12:27:57 43° 167° (SSE) 977 3.0 -11.1°
Drops below altitude 10° 12:35:52 10° 98° (E) 4,054 7.3 -9.6°
Sets 12:42:12 0° 94° (E) 6,596 8.8 -8.3°
